Wind_Speed
12 12 11 11 11 11 12 11 10 10 10 10 10 10 10 10 10 10 10 9 9 9 9 9 8 9 9 9 9 9 9 8 9 9 8 8 8 8 7 7 7 6 6
11 11 11 11 10 10 9 9 9 9 9 9 9 10 9 9 9 10 9 9 8 9 8 9 8 8 9 9 9 8 8 8 9 9 8 8 8 8 8 8 7 7 7
10 10 10 10 9 8 8 7 8 8 8 9 9 9 8 8 9 9 8 8 8 8 8 8 8 8 8 9 8 8 8 8 8 8 8 8 7 7 8 7 7 7 7
10 9 9 9 8 7 6 6 6 6 7 8 8 7 7 8 8 8 8 8 9 8 8 8 8 8 9 8 8 8 8 8 8 8 8 7 7 7 7 7 7 7 7
9 8 8 7 7 6 6 6 6 7 6 6 6 7 7 7 7 8 8 8 8 7 7 7 8 8 8 8 8 8 8 8 8 7 7 7 7 7 7 7 7 7 7
7 7 7 7 7 6 6 5 5 6 5 5 6 6 6 7 7 7 8 7 7 6 6 7 7 7 7 7 7 7 8 8 8 8 7 7 7 7 7 7 7 7 7
7 6 6 6 6 5 5 5 4 4 4 5 5 6 6 6 6 6 6 6 6 6 6 6 6 5 5 6 6 7 7 8 8 7 7 7 7 7 7 7 7 7 7
7 6 5 5 5 4 4 4 4 3 3 4 4 5 5 5 5 5 5 5 5 5 6 5 5 5 5 5 5 6 6 7 7 7 7 7 6 6 6 6 6 6 6
7 6 6 5 5 5 4 4 3 3 3 3 3 4 4 4 5 5 5 5 5 5 5 5 5 5 6 5 5 5 5 5 6 6 6 6 6 6 6 6 5 5 5
8 7 6 6 5 5 4 4 3 3 3 3 3 3 4 4 4 5 5 5 5 4 5 5 5 5 5 5 5 5 5 5 5 6 6 6 6 6 6 5 5 5 5
8 7 6 5 5 5 4 4 3 3 3 2 3 3 3 3 3 3 3 4 4 4 4 4 5 5 5 5 4 4 4 4 5 5 6 6 6 5 5 5 5 5 5
8 7 6 6 6 5 5 4 4 3 3 3 3 3 3 4 3 2 3 3 4 4 4 3 4 4 4 4 4 4 4 4 4 5 5 5 5 5 5 4 4 4 4
8 7 7 6 6 6 6 5 4 3 3 3 3 3 3 3 3 3 3 2 2 3 3 3 3 4 3 3 3 3 3 3 3 3 4 4 5 4 4 4 4 4 3
7 7 7 6 6 6 6 5 5 4 3 3 3 3 3 3 3 3 3 3 2 2 2 3 2 3 3 2 2 2 2 2 3 3 3 3 3 4 3 3 3 4 3
8 8 7 6 6 6 6 5 4 4 3 2 2 3 3 3 3 3 3 3 3 3 2 1 1 1 1 2 2 2 2 2 2 2 3 3 2 2 3 3 2 2 3
9 8 7 7 6 6 6 5 4 4 3 2 2 2 3 3 3 3 3 3 3 3 3 2 1 1 1 2 2 2 2 2 2 2 2 2 2 2 2 2 2 2 2
9 8 8 7 7 7 7 6 5 4 3 3 3 3 3 3 3 3 4 3 3 3 3 3 2 2 2 2 2 3 3 2 2 2 2 2 2 2 2 2 2 2 2
9 9 8 8 7 7 7 7 6 5 4 3 4 3 4 4 4 4 4 5 5 5 5 4 4 3 3 3 3 4 3 3 3 3 2 2 3 3 3 3 3 3 3
9 9 9 9 8 8 8 8 7 6 5 4 4 4 5 5 5 5 6 6 6 6 6 5 6 5 4 4 5 5 4 4 4 4 3 3 3 3 4 3 4 4 4
10 10 9 9 9 8 8 8 7 6 6 5 5 5 6 6 6 6 6 6 6 6 6 6 7 6 6 6 6 6 5 4 5 5 5 4 4 5 5 5 5 5 5
10 10 10 10 10 10 9 9 8 7 6 6 6 6 6 7 7 7 7 7 7 7 7 7 8 8 7 7 7 6 6 6 6 6 6 6 6 6 6 6 6 6 6
10 11 10 10 11 10 9 8 8 7 7 8 8 7 7 7 7 7 7 8 8 7 8 9 8 8 8 9 9 8 7 7 7 7 8 8 8 8 7 7 7 7 8
10 11 11 11 11 10 9 9 8 8 8 9 8 7 7 7 7 7 8 8 8 7 8 9 9 9 9 9 9 9 8 8 9 8 9 9 9 9 9 9 9 9 9
11 11 11 11 11 10 9 9 9 9 9 9 8 8 8 8 8 8 8 8 8 8 9 9 9 9 9 9 9 10 10 10 10 10 10 10 10 11 11 11 10 11 10
11 11 12 11 11 11 10 10 11 10 10 10 9 9 9 8 8 8 8 8 9 9 9 10 10 10 9 10 10 11 12 12 12 12 12 12 12 12 12 12 12 12 13
11 12 12 12 12 12 11 11 11 11 11 10 10 10 9 9 9 9 9 9 10 10 10 11 11 11 11 10 11 11 12 13 13 13 14 14 14 14 14 14 15 15 15
Wind_Direction
80 82 85 86 90 92 99 102 103 104 106 110 112 115 116 113 108 102 103 103 103 100 94 87 84 89 88 87 86 85 81 75 72 71 68 67 69 73 74 75 74 70 71
77 81 83 81 81 88 96 97 99 100 106 112 112 114 114 112 107 102 102 102 103 101 94 88 88 92 92 91 88 82 74 70 68 68 68 67 69 71 70 71 71 69 69
74 80 80 76 77 82 84 89 99 100 104 110 112 112 111 109 108 106 104 102 101 102 95 92 92 91 92 90 87 79 69 66 69 68 65 65 67 68 68 65 66 68 68
71 74 75 73 73 80 84 85 89 94 99 109 111 112 110 110 109 107 105 101 99 99 96 93 88 90 93 92 87 79 69 68 71 68 66 66 70 70 67 63 64 66 68
71 71 70 69 70 71 77 81 84 82 88 105 115 115 115 112 110 107 106 104 104 102 101 95 92 95 96 94 87 79 70 69 69 68 69 67 69 69 68 66 67 67 68
67 69 69 68 67 65 66 70 74 73 79 95 112 115 116 118 112 108 108 108 106 102 99 97 98 98 99 97 88 77 71 70 70 67 66 63 65 68 70 70 68 69 69
61 68 66 66 63 61 64 63 64 71 77 84 93 101 108 114 119 110 108 107 103 98 96 91 92 98 100 96 88 81 75 72 70 66 63 59 61 68 70 69 68 68 68
55 60 56 59 58 53 54 55 60 70 76 79 86 90 94 101 102 110 107 105 98 96 96 91 85 84 96 98 90 82 74 71 68 65 63 58 61 65 69 69 70 69 71
53 51 51 53 49 46 43 43 52 64 69 73 73 80 86 100 97 96 92 90 89 88 89 90 88 84 93 95 89 81 75 69 66 63 59 59 61 62 66 69 68 67 73
45 45 47 47 42 35 32 41 42 52 56 59 61 63 72 86 88 93 88 91 88 86 83 83 80 82 91 90 88 83 75 69 65 61 60 60 61 63 65 68 66 64 69
39 41 46 43 39 31 32 37 38 44 45 50 54 51 63 71 81 95 86 88 83 86 85 77 73 82 86 91 89 81 74 67 66 59 61 60 62 66 67 68 70 70 68
34 33 35 34 30 28 27 26 31 38 38 37 44 49 53 52 49 65 61 82 78 84 88 78 73 75 82 83 83 84 76 66 65 55 58 57 59 62 61 62 69 65 60
28 26 26 25 23 26 23 22 28 34 39 35 42 41 42 45 35 46 44 55 75 78 85 78 70 79 81 74 77 75 72 66 58 52 53 56 57 51 51 55 56 50 51
20 19 19 20 17 17 19 25 35 43 38 38 41 39 31 27 23 39 45 48 53 54 67 68 55 69 71 61 65 63 60 58 42 49 54 53 54 51 51 45 50 45 37
15 11 9 8 7 9 14 21 25 29 27 39 31 24 17 14 11 24 31 32 33 28 26 43 47 45 36 48 45 40 32 20 24 33 41 44 46 47 42 33 41 35 31
12 11 6 360 354 353 358 2 8 15 21 24 12 5 3 1 0 1 4 9 11 0 357 343 332 356 17 18 18 7 359 356 357 24 15 9 15 19 15 12 7 1 1
10 9 4 358 350 346 344 347 345 353 353 350 345 337 339 345 352 347 342 342 342 337 335 334 326 319 322 331 343 345 339 326 327 328 331 336 350 350 344 341 335 339 340
4 4 3 358 352 345 340 337 333 325 327 328 322 314 317 326 330 331 329 328 327 322 317 317 315 306 299 306 315 321 322 313 306 306 310 324 336 335 332 332 332 334 332
357 358 357 354 348 344 341 336 331 321 318 317 313 304 306 310 313 318 321 323 323 315 311 309 307 301 299 298 300 305 310 315 308 304 299 307 321 325 325 323 319 323 329
350 352 349 346 345 342 337 332 327 321 314 311 313 310 305 304 304 304 308 314 319 314 310 306 307 303 302 300 295 295 293 293 293 292 290 293 300 306 308 306 310 312 315
340 343 343 342 344 340 332 327 320 316 308 308 309 311 306 302 299 303 309 317 316 308 304 303 300 296 294 296 296 295 293 291 291 291 289 288 292 298 298 298 301 304 304
336 337 340 338 337 336 332 329 323 318 312 308 303 304 306 304 300 302 306 312 311 306 306 302 294 293 293 290 290 291 292 291 291 288 286 285 285 289 289 290 291 294 297
331 334 336 337 337 335 334 331 327 321 317 311 309 306 304 303 306 303 303 305 309 306 305 304 293 289 291 291 291 291 288 286 288 289 288 287 286 286 287 291 293 293 293
322 326 329 333 334 334 334 332 326 322 318 314 307 301 298 296 303 307 299 299 303 304 305 306 300 296 294 294 294 293 290 287 285 285 284 285 285 285 286 287 286 286 288
317 321 323 326 327 328 326 326 327 323 319 316 309 302 299 299 302 306 302 299 300 301 303 303 302 300 296 293 291 290 287 286 285 285 286 287 286 287 285 284 285 284 287
310 314 318 320 321 322 323 321 320 319 314 313 308 301 299 298 298 300 300 299 300 299 301 303 302 300 297 293 291 292 290 288 285 284 284 286 286 286 286 285 285 285 285
Height
5885 5885 5885 5885 5885 5885 5885 5885 5885 5885 5885 5885 5885 5886 5886 5887 5887 5887 5887 5887 5888 5889 5889 5889 5889 5889 5889 5890 5890 5890 5890 5890 5890 5891 5891 5891 5891 5891 5891 5891 5891 5891 5891
5888 5887 5887 5887 5887 5887 5887 5887 5887 5887 5887 5887 5887 5888 5888 5889 5889 5889 5889 5890 5890 5890 5891 5891 5891 5891 5891 5891 5892 5892 5892 5892 5892 5892 5892 5892 5892 5892 5893 5893 5893 5893 5893
5890 5889 5889 5889 5889 5889 5889 5889 5889 5889 5888 5889 5889 5890 5890 5890 5891 5891 5891 5891 5891 5891 5892 5892 5892 5892 5892 5893 5893 5893 5893 5893 5893 5893 5894 5894 5894 5894 5894 5894 5894 5894 5894
5892 5892 5891 5891 5891 5891 5891 5891 5891 5891 5890 5891 5891 5891 5892 5892 5892 5892 5892 5892 5892 5893 5893 5893 5894 5894 5894 5894 5894 5895 5895 5895 5895 5895 5895 5895 5895 5895 5895 5895 5895 5895 5895
5894 5894 5894 5893 5893 5893 5893 5893 5893 5892 5893 5893 5892 5893 5893 5893 5893 5894 5894 5894 5894 5895 5895 5895 5895 5895 5896 5896 5896 5896 5896 5897 5897 5896 5897 5897 5897 5896 5897 5897 5897 5897 5897
5896 5896 5895 5895 5895 5895 5895 5895 5894 5894 5894 5894 5894 5894 5895 5895 5895 5895 5895 5895 5896 5896 5896 5896 5897 5897 5897 5897 5898 5898 5898 5898 5898 5898 5898 5898 5898 5898 5898 5898 5898 5898 5898
5898 5897 5897 5897 5897 5897 5897 5897 5896 5896 5896 5896 5896 5896 5896 5896 5896 5896 5897 5897 5897 5897 5898 5898 5898 5898 5898 5899 5899 5899 5899 5899 5900 5900 5900 5899 5899 5899 5899 5899 5900 5900 5900
5899 5899 5899 5899 5899 5899 5899 5898 5898 5898 5898 5898 5898 5898 5898 5898 5898 5898 5898 5898 5899 5899 5899 5899 5899 5899 5899 5900 5900 5901 5901 5901 5901 5901 5901 5901 5900 5900 5900 5901 5901 5901 5901
5901 5901 5900 5900 5900 5900 5900 5900 5900 5900 5899 5899 5899 5899 5899 5899 5899 5899 5900 5900 5900 5900 5900 5900 5900 5900 5901 5901 5901 5902 5902 5902 5902 5902 5902 5902 5902 5902 5902 5902 5902 5902 5902
5903 5902 5902 5902 5902 5901 5901 5901 5901 5901 5901 5901 5901 5901 5901 5901 5901 5901 5901 5901 5901 5901 5901 5902 5902 5902 5902 5902 5903 5903 5903 5904 5904 5904 5903 5903 5903 5903 5903 5903 5903 5903 5903
5904 5904 5904 5903 5903 5903 5902 5902 5902 5902 5902 5902 5902 5902 5902 5902 5902 5902 5902 5902 5902 5902 5903 5903 5903 5903 5903 5904 5904 5904 5904 5905 5905 5905 5904 5904 5904 5904 5904 5904 5904 5904 5904
5906 5906 5905 5905 5905 5904 5904 5904 5903 5903 5903 5903 5903 5903 5903 5903 5903 5904 5904 5903 5903 5903 5904 5904 5904 5904 5905 5905 5905 5905 5905 5905 5906 5906 5905 5905 5905 5905 5905 5905 5905 5905 5905
5908 5907 5907 5906 5906 5906 5905 5905 5904 5904 5904 5904 5904 5904 5905 5905 5905 5905 5905 5905 5904 5905 5905 5905 5905 5905 5906 5906 5906 5906 5906 5906 5906 5906 5906 5906 5906 5906 5906 5906 5906 5906 5906
5909 5909 5908 5907 5907 5907 5907 5906 5905 5906 5906 5905 5905 5905 5906 5906 5906 5906 5906 5906 5906 5906 5906 5906 5906 5907 5907 5907 5907 5907 5907 5907 5906 5906 5907 5907 5907 5907 5907 5907 5907 5907 5907
5910 5910 5909 5909 5908 5908 5908 5907 5906 5907 5906 5906 5906 5906 5906 5906 5906 5906 5906 5906 5906 5907 5907 5907 5907 5907 5907 5907 5907 5907 5907 5907 5907 5907 5907 5907 5907 5907 5907 5907 5907 5907 5907
5911 5911 5910 5910 5909 5909 5909 5908 5907 5907 5907 5907 5907 5907 5907 5907 5907 5907 5907 5907 5907 5907 5907 5907 5907 5908 5908 5908 5908 5908 5908 5908 5908 5908 5908 5908 5908 5908 5908 5908 5908 5907 5907
5913 5912 5911 5910 5910 5910 5909 5909 5908 5908 5908 5907 5907 5907 5907 5907 5907 5907 5907 5907 5907 5907 5907 5907 5907 5908 5908 5908 5908 5908 5908 5908 5908 5908 5908 5908 5908 5908 5908 5908 5908 5907 5907
5913 5913 5912 5911 5911 5910 5910 5909 5909 5908 5908 5908 5908 5908 5908 5907 5907 5907 5907 5907 5907 5907 5907 5907 5907 5908 5908 5908 5908 5908 5908 5908 5908 5908 5908 5908 5908 5908 5908 5907 5907 5907 5907
5914 5913 5912 5912 5911 5910 5910 5909 5909 5908 5908 5908 5908 5908 5908 5908 5907 5907 5907 5907 5907 5907 5906 5907 5907 5907 5907 5908 5908 5908 5908 5908 5907 5907 5907 5907 5907 5907 5907 5907 5907 5907 5907
5914 5913 5913 5912 5911 5910 5910 5909 5908 5908 5908 5908 5908 5908 5908 5907 5907 5907 5907 5907 5907 5906 5906 5906 5906 5906 5907 5907 5907 5907 5907 5907 5907 5907 5907 5907 5907 5907 5907 5906 5906 5906 5906
5915 5914 5913 5912 5911 5910 5909 5909 5908 5907 5907 5907 5907 5907 5907 5907 5906 5906 5906 5906 5906 5906 5905 5905 5905 5906 5906 5906 5906 5906 5906 5906 5906 5906 5905 5905 5905 5905 5905 5905 5905 5905 5905
5914 5913 5913 5912 5911 5910 5909 5908 5907 5907 5907 5907 5906 5906 5906 5906 5906 5906 5905 5905 5905 5905 5905 5904 5904 5904 5904 5904 5905 5905 5905 5905 5904 5904 5904 5904 5903 5903 5903 5903 5904 5903 5903
5914 5913 5913 5912 5910 5909 5908 5907 5907 5906 5906 5906 5905 5905 5905 5905 5905 5905 5905 5905 5904 5904 5904 5903 5903 5903 5903 5903 5903 5903 5903 5903 5903 5903 5902 5902 5901 5902 5902 5901 5901 5901 5901
5914 5913 5912 5911 5910 5909 5908 5906 5906 5905 5905 5904 5904 5903 5903 5903 5903 5903 5903 5903 5903 5902 5902 5902 5902 5901 5901 5901 5901 5901 5901 5901 5901 5901 5901 5900 5900 5900 5899 5899 5899 5898 5898
5912 5912 5911 5910 5909 5908 5907 5906 5905 5904 5904 5903 5902 5902 5902 5902 5902 5902 5902 5902 5901 5901 5901 5900 5900 5900 5899 5899 5899 5899 5899 5898 5898 5898 5898 5898 5898 5897 5897 5897 5897 5896 5895
5911 5910 5910 5909 5908 5906 5905 5905 5904 5903 5902 5901 5901 5900 5900 5900 5900 5900 5900 5899 5899 5899 5899 5899 5898 5898 5897 5897 5897 5896 5896 5896 5896 5895 5895 5895 5895 5894 5894 5894 5893 5893 5893